| time (UTC) | temp F | wind direction | speed MPH | gust MPH | rain 1hr in | rain 24hr in | rain mn in | humidity % | barometer mb |
| 20260905061555 | 80 | 160 | 0.0 | 2.0 | 0.00 | 0.00 | 0.00 | 79 | 1012.9 |
| 20260905060021 | 80 | 120 | 0.0 | 1.0 | 0.00 | 0.00 | 0.00 | 79 | 1012.9 |
| 20260905054554 | 81 | 113 | 1.0 | 4.0 | 0.00 | 0.00 | 0.00 | 78 | 1012.9 |
| 20260905053022 | 81 | 121 | 0.0 | 2.0 | 0.00 | 0.00 | 0.00 | 77 | 1013.0 |
| 20260905051551 | 81 | 162 | 1.0 | 5.0 | 0.00 | 0.00 | 0.00 | 77 | 1012.8 |
| 20260905050018 | 82 | 125 | 0.0 | 4.0 | 0.00 | 0.00 | 0.00 | 75 | 1012.9 |
| 20260905044553 | 82 | 143 | 1.0 | 8.0 | 0.00 | 0.00 | 0.00 | 75 | 1013.0 |
| 20260905043024 | 82 | 105 | 2.0 | 6.0 | 0.00 | 0.00 | 0.00 | 74 | 1013.0 |
| 20260905041559 | 83 | 148 | 3.0 | 9.0 | 0.00 | 0.00 | 0.00 | 73 | 1013.0 |
| 20260905040031 | 83 | 104 | 4.0 | 8.0 | 0.00 | 0.00 | 0.00 | 72 | 1012.9 |
| 20260905034616 | 83 | 96 | 3.0 | 7.0 | 0.00 | 0.00 | 0.00 | 71 | 1012.9 |
| 20260905033030 | 84 | 102 | 3.0 | 9.0 | 0.00 | 0.00 | 0.00 | 70 | 1012.7 |
| 20260905031503 | 84 | 103 | 4.0 | 9.0 | 0.00 | 0.00 | 0.00 | 69 | 1012.7 |
| 20260905030034 | 84 | 117 | 4.0 | 10.0 | 0.00 | 0.00 | 0.00 | 68 | 1012.8 |
| 20260905024505 | 85 | 113 | 3.0 | 8.0 | 0.00 | 0.00 | 0.00 | 66 | 1012.5 |
| 20260905023038 | 85 | 110 | 4.0 | 9.0 | 0.00 | 0.00 | 0.00 | 65 | 1012.2 |
| 20260905021514 | 85 | 111 | 4.0 | 9.0 | 0.00 | 0.00 | 0.00 | 64 | 1012.3 |
| 20260905020044 | 86 | 119 | 4.0 | 10.0 | 0.00 | 0.00 | 0.00 | 63 | 1012.1 |
| 20260905014520 | 85 | 94 | 3.0 | 10.0 | 0.00 | 0.00 | 0.00 | 63 | 1011.9 |
| 20260905013115 | 86 | 86 | 3.0 | 8.0 | 0.00 | 0.00 | 0.00 | 62 | 1011.7 |
| 20260905011529 | 86 | 114 | 4.0 | 7.0 | 0.00 | 0.00 | 0.00 | 61 | 1011.5 |
| 20260905010004 | 87 | 111 | 5.0 | 12.0 | 0.00 | 0.00 | 0.00 | 60 | 1011.3 |
| 20260905004558 | 87 | 103 | 6.0 | 12.0 | 0.00 | 0.00 | 0.00 | 60 | 1011.2 |
| 20260905003013 | 88 | 117 | 6.0 | 12.0 | 0.00 | 0.00 | 0.00 | 60 | 1011.0 |
| 20260905001555 | 90 | 61 | 6.0 | 15.0 | 0.00 | 0.00 | 0.00 | 54 | 1011.0 |
| 20260905000017 | 93 | 46 | 6.0 | 12.0 | 0.00 | 0.00 | 0.00 | 45 | 1010.7 |
| 20260904234556 | 93 | 109 | 5.0 | 9.0 | 0.00 | 0.00 | 0.00 | 45 | 1010.7 |
| 20260904233030 | 93 | 119 | 5.0 | 13.0 | 0.00 | 0.00 | 0.00 | 45 | 1010.7 |
| 20260904231503 | 94 | 74 | 6.0 | 13.0 | 0.00 | 0.00 | 0.00 | 45 | 1010.7 |
| 20260904230040 | 94 | 124 | 6.0 | 12.0 | 0.00 | 0.00 | 0.00 | 45 | 1010.7 |
| 20260904224513 | 92 | 115 | 6.0 | 13.0 | 0.00 | 0.00 | 0.00 | 48 | 1010.7 |
| 20260904223050 | 91 | 161 | 8.0 | 13.0 | 0.00 | 0.00 | 0.00 | 48 | 1010.9 |
| 20260904221519 | 91 | 118 | 8.0 | 15.0 | 0.00 | 0.00 | 0.00 | 49 | 1011.0 |
| 20260904220052 | 92 | 102 | 9.0 | 13.0 | 0.00 | 0.00 | 0.00 | 48 | 1011.1 |
| 20260904214524 | 92 | 94 | 10.0 | 14.0 | 0.00 | 0.00 | 0.00 | 48 | 1011.3 |
| 20260904213058 | 92 | 130 | 6.0 | 15.0 | 0.00 | 0.00 | 0.00 | 47 | 1011.4 |
| 20260904211530 | 92 | 52 | 7.0 | 15.0 | 0.00 | 0.00 | 0.00 | 47 | 1011.5 |
| 20260904210008 | 90 | 82 | 6.0 | 15.0 | 0.00 | 0.00 | 0.00 | 49 | 1011.6 |
| 20260904204539 | 90 | 101 | 7.0 | 14.0 | 0.00 | 0.00 | 0.00 | 48 | 1011.8 |
| 20260904203018 | 95 | 103 | 6.0 | 13.0 | 0.00 | 0.00 | 0.00 | 44 | 1011.9 |
| 20260904201546 | 97 | 141 | 3.0 | 7.0 | 0.00 | 0.00 | 0.00 | 39 | 1011.9 |
| 20260904200018 | 96 | 134 | 2.0 | 8.0 | 0.00 | 0.00 | 0.00 | 39 | 1012.0 |
| 20260904194603 | 96 | 122 | 4.0 | 9.0 | 0.00 | 0.00 | 0.00 | 39 | 1012.3 |
| 20260904193025 | 97 | 110 | 3.0 | 10.0 | 0.00 | 0.00 | 0.00 | 37 | 1012.4 |
| 20260904191600 | 97 | 165 | 5.0 | 11.0 | 0.00 | 0.00 | 0.00 | 38 | 1012.4 |
| 20260904190035 | 98 | 214 | 1.0 | 9.0 | 0.00 | 0.00 | 0.00 | 38 | 1012.5 |
| 20260904184512 | 97 | 158 | 4.0 | 11.0 | 0.00 | 0.00 | 0.00 | 43 | 1012.8 |
| 20260904183040 | 95 | 104 | 3.0 | 9.0 | 0.00 | 0.00 | 0.00 | 46 | 1012.9 |
| 20260904181519 | 94 | 146 | 2.0 | 10.0 | 0.00 | 0.00 | 0.00 | 48 | 1013.1 |
| 20260904180052 | 93 | 206 | 5.0 | 10.0 | 0.00 | 0.00 | 0.00 | 48 | 1013.5 |
| 20260904174515 | 92 | 143 | 4.0 | 14.0 | 0.00 | 0.00 | 0.00 | 50 | 1013.6 |
| 20260904173049 | 92 | 229 | 4.0 | 8.0 | 0.00 | 0.00 | 0.00 | 52 | 1013.9 |
| 20260904171543 | 91 | 159 | 4.0 | 9.0 | 0.00 | 0.00 | 0.00 | 55 | 1014.0 |
| 20260904170052 | 89 | 219 | 1.0 | 7.0 | 0.00 | 0.00 | 0.00 | 57 | 1014.2 |
| 20260904164521 | 89 | 146 | 3.0 | 8.0 | 0.00 | 0.00 | 0.00 | 58 | 1014.2 |
| 20260904163056 | 89 | 231 | 4.0 | 7.0 | 0.00 | 0.00 | 0.00 | 60 | 1014.1 |
| 20260904161527 | 88 | 206 | 5.0 | 9.0 | 0.00 | 0.00 | 0.00 | 60 | 1014.1 |
| 20260904160100 | 88 | 167 | 4.0 | 8.0 | 0.00 | 0.00 | 0.00 | 62 | 1014.0 |
| 20260904154538 | 87 | 184 | 3.0 | 7.0 | 0.00 | 0.00 | 0.00 | 66 | 1013.9 |
| 20260904153112 | 86 | 165 | 2.0 | 7.0 | 0.00 | 0.00 | 0.00 | 68 | 1013.7 |
| 20260904151533 | 85 | 160 | 2.0 | 7.0 | 0.00 | 0.00 | 0.00 | 70 | 1013.7 |
| 20260904150002 | 85 | 189 | 2.0 | 4.0 | 0.00 | 0.00 | 0.00 | 72 | 1013.6 |
| 20260904144532 | 84 | 238 | 1.0 | 4.0 | 0.00 | 0.00 | 0.00 | 75 | 1013.7 |
| 20260904143101 | 83 | 132 | 1.0 | 3.0 | 0.00 | 0.00 | 0.00 | 76 | 1013.6 |
| 20260904141532 | 83 | 108 | 2.0 | 6.0 | 0.00 | 0.00 | 0.00 | 78 | 1013.6 |
| 20260904140003 | 82 | 199 | 1.0 | 5.0 | 0.00 | 0.00 | 0.00 | 80 | 1013.5 |
| 20260904134545 | 81 | 146 | 2.0 | 3.0 | 0.00 | 0.00 | 0.00 | 82 | 1013.2 |
| 20260904133012 | 80 | 193 | 0.0 | 1.0 | 0.00 | 0.00 | 0.00 | 83 | 1013.3 |
| 20260904131545 | 79 | 129 | 0.0 | 0.0 | 0.00 | 0.00 | 0.00 | 84 | 1013.1 |
| 20260904130021 | 79 | 88 | 0.0 | 0.0 | 0.00 | 0.00 | 0.00 | 83 | 1013.1 |
| 20260904124556 | 78 | 89 | 0.0 | 0.0 | 0.00 | 0.00 | 0.00 | 83 | 1013.1 |
| 20260904123028 | 78 | 88 | 0.0 | 0.0 | 0.00 | 0.00 | 0.00 | 83 | 1013.0 |
| 20260904121600 | 78 | 88 | 0.0 | 0.0 | 0.00 | 0.00 | 0.00 | 82 | 1012.9 |
| 20260904120048 | 78 | 89 | 0.0 | 0.0 | 0.00 | 0.00 | 0.00 | 82 | 1012.8 |
| 20260904114509 | 79 | 88 | 0.0 | 0.0 | 0.00 | 0.00 | 0.00 | 82 | 1012.8 |
| 20260904113041 | 79 | 89 | 0.0 | 0.0 | 0.00 | 0.00 | 0.00 | 82 | 1012.6 |
| 20260904111516 | 79 | 88 | 0.0 | 0.0 | 0.00 | 0.00 | 0.00 | 82 | 1012.6 |
| 20260904110055 | 79 | 88 | 0.0 | 1.0 | 0.00 | 0.00 | 0.00 | 82 | 1012.6 |
| 20260904104534 | 79 | 98 | 0.0 | 1.0 | 0.00 | 0.00 | 0.00 | 82 | 1012.5 |
| 20260904103100 | 79 | 98 | 0.0 | 1.0 | 0.00 | 0.00 | 0.00 | 82 | 1012.3 |
| 20260904101540 | 79 | 104 | 0.0 | 1.0 | 0.00 | 0.00 | 0.00 | 82 | 1012.3 |
| 20260904100012 | 79 | 116 | 0.0 | 1.0 | 0.00 | 0.00 | 0.00 | 82 | 1012.2 |
| 20260904094557 | 79 | 117 | 0.0 | 1.0 | 0.00 | 0.00 | 0.00 | 81 | 1012.1 |
| 20260904093017 | 79 | 129 | 0.0 | 1.0 | 0.00 | 0.00 | 0.00 | 81 | 1011.9 |
| 20260904091552 | 79 | 129 | 0.0 | 0.0 | 0.00 | 0.00 | 0.00 | 81 | 1011.9 |
| 20260904090028 | 79 | 129 | 0.0 | 0.0 | 0.00 | 0.00 | 0.00 | 81 | 1011.8 |
| 20260904084601 | 79 | 129 | 0.0 | 1.0 | 0.00 | 0.00 | 0.00 | 80 | 1011.8 |
| 20260904083033 | 79 | 129 | 0.0 | 0.0 | 0.00 | 0.00 | 0.00 | 80 | 1011.9 |
| 20260904081507 | 79 | 129 | 0.0 | 0.0 | 0.00 | 0.00 | 0.00 | 80 | 1011.9 |
| 20260904080042 | 79 | 129 | 0.0 | 1.0 | 0.00 | 0.00 | 0.00 | 79 | 1011.9 |
| 20260904074513 | 80 | 129 | 0.0 | 1.0 | 0.00 | 0.00 | 0.00 | 79 | 1011.9 |
| 20260904073046 | 80 | 186 | 0.0 | 0.0 | 0.00 | 0.00 | 0.00 | 79 | 1012.1 |
| 20260904071520 | 80 | 187 | 0.0 | 0.0 | 0.00 | 0.00 | 0.00 | 78 | 1012.2 |
| 20260904070155 | 80 | 187 | 0.0 | 0.0 | 0.00 | 0.00 | 0.00 | 78 | 1012.3 |
| 20260904064526 | 81 | 187 | 0.0 | 2.0 | 0.00 | 0.00 | 0.00 | 78 | 1012.4 |
| 20260904063104 | 80 | 146 | 0.0 | 1.0 | 0.00 | 0.00 | 0.00 | 77 | 1012.4 |